This demonstration page uses our WeatherBlox Daily Observations layout. Learn more.

Hourly Observations for June 5, 2020

Temp ( °F °C ) Dew Point ( °F °C ) Humidity (%) Winds ( mph kmh ) Pressure ( in mb ) Visibility ( mi km ) Precip ( " mm )
12:03 am 00:03 Mostly Cloudy with Thunderstorms 68 20 61 16.1 78 78 W 10 17 29.77 1008 3 4.82802 0.12 3.048
12:12 am 00:12 Partly Cloudy with Light Thunderstorms 69 20.6 61 16.1 76 76 VRB 6 9 29.75 1008 10 16.0934 0.12 3.048
12:23 am 00:23 Partly Cloudy with Nearby Thunderstorms 67 19.4 63 17.2 87 87 ESE 15 24 29.76 1008 10 16.0934 0.12 3.048
12:33 am 00:33 Clear 68 20 63 17.2 84 84 SE 9 15 29.74 1007 10 16.0934 0.12 3.048
12:54 am 00:54 Clear 68 20 63 17.2 84 84 SSE 12 19 29.72 1007 10 16.0934 0.12 3.048
1:54 am 01:54 Clear 70 21.1 62 16.7 76 76 SSW 10 17 29.72 1007 10 16.0934 0 0
2:54 am 02:54 Clear 71 21.7 62 16.7 73 73 VRB 3 6 29.72 1006 10 16.0934 0 0
3:54 am 03:54 Clear 68 20 63 17.2 84 84 Calm 29.75 1008 10 16.0934 0 0
4:54 am 04:54 Clear 69 20.6 64 17.8 84 84 ENE 7 11 29.76 1008 10 16.0934 0 0
5:54 am 05:54 Clear 68 20 64 17.8 87 87 NNE 3 6 29.79 1009 10 16.0934 0 0
6:54 am 06:54 Partly Cloudy with Nearby Thunderstorms 69 20.6 65 18.3 87 87 WNW 6 9 29.84 1011 10 16.0934 0.001 0.001
7:05 am 07:05 Mostly Cloudy with Thunderstorms 69 20.6 65 18.3 87 87 Calm 29.84 1011 10 16.0934 0.001 0.001
7:36 am 07:36 Cloudy with Nearby Thunderstorms 70 21.1 65 18.3 84 84 Calm 29.84 1011 10 16.0934 0.001 0.001
7:50 am 07:50 Cloudy 70 21 64 18 83 83 S 3 6 29.85 1011 10 16.0934 0.001 0.001
7:54 am 07:54 Cloudy 69 20.6 65 18.3 87 87 Calm 29.85 1011 10 16.0934 0.001 0.001
8:54 am 08:54 Mostly Cloudy 74 23.3 65 18.3 74 74 NW 6 9 29.87 1011 10 16.0934 0 0
9:54 am 09:54 Sunny 80 26.7 64 17.8 58 58 Calm 29.88 1012 10 16.0934 0 0
10:54 am 10:54 Mostly Sunny 84 28.9 66 18.9 55 55 WNW 3 6 29.88 1012 10 16.0934 0 0
11:54 am 11:54 Sunny 86 30 66 18.9 51 51 Calm 29.9 1013 10 16.0934 0 0
12:54 pm 12:54 Sunny 88 31.1 66 18.9 48 48 ENE 5 7 29.89 1012 10 16.0934 0 0
1:54 pm 13:54 Sunny 89 31.7 64 17.8 43 43 ESE 3 6 29.88 1012 10 16.0934 0 0
2:54 pm 14:54 Sunny 91 32.8 64 17.8 41 41 Calm 29.87 1012 10 16.0934 0 0
3:54 pm 15:54 Sunny 92 33.3 65 18.3 41 41 SE 9 15 29.85 1011 10 16.0934 0 0
4:54 pm 16:54 Sunny 92 33.3 67 19.4 44 44 E 10 17 29.84 1011 10 16.0934 0 0
5:54 pm 17:54 Sunny 92 33.3 67 19.4 44 44 E 9 15 29.84 1011 10 16.0934 0 0
6:54 pm 18:54 Sunny 91 32.8 64 17.8 41 41 S 7 11 29.84 1011 10 16.0934 0 0
7:54 pm 19:54 Sunny 88 31.1 67 19.4 50 50 S 5 7 29.85 1011 10 16.0934 0 0
8:54 pm 20:54 Mostly Cloudy 86 30 68 20 55 55 ESE 9 15 29.86 1011 10 16.0934 0 0
9:54 pm 21:54 Clear 84 28.9 68 20 59 59 ESE 12 19 29.87 1012 10 16.0934 0 0
10:54 pm 22:54 Clear 82 27.8 68 20 63 63 SE 10 17 29.89 1012 10 16.0934 0 0
11:54 pm 23:54 Clear 80 26.7 68 20 67 67 SE 7 11 29.9 1013 10 16.0934 0 0

Powered by AerisWeather